Current Version              Previous Version:    01  02  03  04  05  06  07  08  09  10  11  12  13  14  15  16  17  18  19  20  21  22  23  24  25  26  27  28  29  30  
   31  32  33  34  35  36  37  38  39  40  41  42  43  44  45  46  47  48  49  50  51  52  53  54  55  56  57  58  59  60  

[Printable]
740
ASUS44 KLUB 210710
RWRTX
WEST TEXAS WEATHER ROUNDUP
NATIONAL WEATHER SERVICE LUBBOCK TX
100 AM CST FRI NOV 21 2014

NOTE: "FAIR" INDICATES FEW OR NO CLOUDS BELOW 12,000 FEET WITH NO
SIGNIFICANT WEATHER AND/OR OBSTRUCTIONS TO VISIBILITY.

TXZ004-006>008-010-012-014-016-OKZ002-210800-
TEXAS PANHANDLE/OKLAHOMA PANHANDLE

CITY           SKY/WX    TMP DP  RH WIND       PRES   REMARKS
AMARILLO       CLEAR     31  29  92 NE8       30.03S WCI  23
BORGER         CLEAR     34  29  82 NE3       30.05S
CANADIAN       CLEAR     28  26  94 CALM      30.05S
DALHART        CLEAR     28  23  81 N3        30.06R
DUMAS            N/A     28  26  91 CALM      30.05S
GUYMON         PTCLDY    34  29  82 SE3       30.06R
HEREFORD       CLEAR     28  25  91 W7        30.03R WCI  20
PAMPA          CLEAR     30  29  95 E6        30.03F WCI  24
PERRYTON       CLEAR     31  28  88 E7        30.05S WCI  24
$$

TXZ026-029-035-045-048-210800-
SOUTHERN PANHANDLE/SOUTH PLAINS/ROLLING PLAINS

CITY           SKY/WX    TMP DP  RH WIND       PRES   REMARKS
CHILDRESS      CLEAR     38  34  85 N7        30.00S WCI  33
SEMINOLE       PTCLDY    41  27  57 SW8       30.00S
LUBBOCK        CLEAR     35  28  75 NE5       30.00R WCI  31
PLAINVIEW      CLEAR     35  31  85 CALM      29.99S
SNYDER         CLEAR     45  39  79 SE7       30.01S
$$

TXZ052-054-060>062-072-078-127-140-154-169-210800-
PERMIAN BASIN/CONCHO VALLEY/BIG COUNTRY/EDWARDS PLATEAU

CITY           SKY/WX    TMP DP  RH WIND       PRES   REMARKS
ABILENE        CLEAR     55  50  83 S10       30.01S
BIG SPRING     CLEAR     51  45  78 S10       30.02S
BRADY          CLEAR     52  52 100 S5        30.04S
BROWNWOOD      MOCLDY    54  54 100 S6        30.04F
JUNCTION       CLOUDY    49  48  97 CALM      30.05S
MIDLAND        CLEAR    N/A N/A N/A MISG      30.00S
ODESSA         CLEAR     49  41  74 SW9       30.01S
SAN ANGELO     CLEAR     52  50  93 S9        30.02S
SONORA         CLEAR     52  52 100 S3        30.08S FOG
SWEETWATER     CLEAR     54  49  82 S12       30.03S
WINK           PTCLDY    42  31  64 SE8       29.99F
$$

TXZ055-058-074-075-080-082-210800-
FAR WEST/SOUTHWEST MOUNTAINS/TRANS PECOS

CITY           SKY/WX    TMP DP  RH WIND       PRES   REMARKS
ALPINE         CLEAR     43  26  51 CALM      30.13S
DRYDEN           N/A     51  49  92 N7        30.01F
EL PASO        PTCLDY    43  20  39 SE6       30.03S
FORT STOCKTON  CLEAR     48  32  53 S12       30.01F
GUADALUPE PASS PTCLDY    47  18  31 W18       30.08S
MARFA          CLEAR     34  27  75 N5        30.11S WCI  30
PECOS          CLEAR     42  29  61 NE7       30.00R
PRESIDIO       FAIR      50  36  57 CALM      30.03R
$$

TXZ014-016-019-021>030-083-210800
TEXAS TECH WEST TEXAS MESONET/TEXAS PANHANDLE/NORTHERN SOUTH PLAINS

CITY           SKY/WX    TMP DP  RH WIND       PRES   REMARKS
ABERNATHY 5ENE   N/A     30  28  91 NE5       30.01S WCI  25
AMARILLO 9NNE    N/A     27  26  93 N1        30.04R
AMARILLO 7SSE    N/A     27  25  94 N3        30.03S
AMHERST 1NE      N/A     29  26  86 NW7       30.01S WCI  22
BOOTLEG 11WNW    N/A     27  22  82 N8        30.04S WCI  19
CANADIAN 6E      N/A     31  28  88 N3        30.03F
CAPROCK CYN SP   N/A     41  34  77 N6        30.01S
CHILDRESS 2NNE   N/A     38  35  89 N8        29.98F WCI  32
CLARENDON 2WSW   N/A     32  30  91 N3        30.02S
CLAUDE 12SW      N/A     31  29  92 NE10      30.01F WCI  22
DIMMITT 2NE      N/A     30  26  82 E6        30.00F WCI  24
FLOYDADA 2NNE    N/A     33  29  85 NE6       30.00R WCI  27
FRIONA 2NE       N/A     27  23  86 N5        30.03S WCI  21
GOODLETT 3W      N/A     40  36  83 N8        29.97S
HART 3N          N/A     31  28  89 N7        30.00F WCI  24
HEREFORD 2NW     N/A     26  22  85 NW5       30.02R WCI  20
MCLEAN 1E        N/A     34  31  88 N8        30.00F WCI  27
MEMPHIS 1NE      N/A     40  35  82 N9        29.99F WCI  34
MULESHOE 2SSW    N/A     24  22  92 S3        30.01F
OLTON 6S         N/A     32  28  84 NE7       30.00F WCI  26
PALO DURO SP     N/A     36  31  81 N3        30.03F
PAMPA 2E         N/A     30  28  94 E1        30.02F
PLAINVIEW 1S     N/A     34  30  86 N3        30.00S
SILVERTON 7ESE   N/A     34  30  85 NE7       30.01F WCI  28
TULIA 2ENE       N/A     28  26  94 N3        30.01S
TURKEY 2WSW      N/A     40  33  78 NW9       30.00S WCI  33
UMBARGER 3NNE    N/A     27  24  89 NE5       30.02S WCI  21
$$

TXZ033>036-039>041-045>048-210800
TEXAS TECH WEST TEXAS MESONET/SOUTH PLAINS

CITY           SKY/WX    TMP DP  RH WIND       PRES   REMARKS
AIKEN 3WSW       N/A     28  26  91 N6        30.02R WCI  22
ANTON 6SSW       N/A     31  27  85 NW2       30.01R
BROWNFIELD 2S    N/A     39  26  59 N5        29.99F
DENVR CTY 7WNW   N/A     40  16  37 W8        29.99R WCI  35
GAIL 2ESE        N/A     45  38  76 E1        29.99R
LAMESA 2SE       N/A     39  35  85 S6        29.99F WCI  35
LEVELLAND 4S     N/A     32  25  76 N3        30.00S
LUBBOCK 3WNW     N/A     32  28  83 CALM      30.01R
MORTON 1ENE      N/A     31  25  76 N3        30.01R
ODONNELL 1N      N/A     38  25  61 CALM      30.00S
PLAINS 3N        N/A     36  19  49 NE8       30.01R WCI  30
RALLS 1SE        N/A     37  32  82 NE6       30.00F WCI  32
REESE CENTER     N/A     33  27  80 NE3       30.01R
SEAGRAVES 1SW    N/A     38  21  51 NW7       30.00R WCI  32
SEMINOLE 2NNE    N/A     38  22  51 W5        29.99S WCI  35
SLATON 2NE       N/A     38  31  74 N5        30.00S WCI  35
SNYDER 3E        N/A     46  40  81 S8        29.99S
SUNDOWN 8SW      N/A     34  22  61 N7        30.00S WCI  28
TAHOKA 3NNE      N/A     33  26  76 NW3       29.99F
WOLFFORTH 6SSW   N/A     35  29  79 N7        30.00S WCI  29
$$

TXZ031-032-036>038-042>044-210800-
TEXAS TECH WEST TEXAS MESONET/ROLLING PLAINS

CITY           SKY/WX    TMP DP  RH WIND       PRES   REMARKS
ASPERMONT 3NE    N/A     40  33  76 SW3       30.00S
FLUVANNA 3WNW    N/A     44  34  67 SW3       30.00R
GRAHAM 5SSW      N/A     49  31  49 SW6       30.00S
GUTHRIE 10WSW    N/A     40  34  81 NW5       29.98F
HASKELL 1NW      N/A     46  37  71 SW7       29.99S
JAYTON 1SSE      N/A     38  32  80 W5        30.00R WCI  34
KNOX CITY 3NW    N/A     39  34  82 S8        30.00R WCI  34
LK A HENRY 1NW   N/A     39  32  75 S2        30.00S
NORTHFIELD 1S    N/A     36  33  88 W5        30.00S WCI  32
ODELL 4ENE       N/A     37  35  94 NW2       29.97F
PADUCAH 10SW     N/A     39  34  84 W9        29.99S WCI  32
POST 1NE         N/A     41  29  62 W1        30.00S
RRING SPRGS 3N   N/A     41  35  79 NW9       30.00R
SEYMOUR 3NW      N/A     47  41  81 S7        29.98S
SPUR 1W          N/A     39  33  80 NW6       29.99R WCI  35
WEINERT 2NNE     N/A     47  38  72 S8        29.99S
WHITE RVR 6NE    N/A     41  34  76 N9        29.99S
$$

TXZ052-054-060>062-072-078-127-140-154-169-210800-
TEXAS TECH WEST TEXAS MESONET/PERMIAN BASIN/
CONCHO VALLEY/BIG COUNTRY/EDWARDS PLATEAU

CITY           SKY/WX    TMP DP  RH WIND       PRES   REMARKS
COYANOSA 2N      N/A     40  29  63 S7        30.00F
JUNCTION 1SSW    N/A     47  47  98 E1        30.05F
MERTZON 3NNE     N/A     52  50  90 S10       30.03S
SAN ANGELO 7NW   N/A     51  47  85 SW2       30.02F
STRLNG CT 4WSW   N/A     53  49  86 S14       30.01S
ST LAWRNCE 5SW   N/A     49  46  90 S10       30.01F
SWEETWATR 11SW   N/A     53  49  85 S12       30.01F
WALL 1E          N/A     55  51  85 S10       30.01F
$$

TXZ055-058-074-075-080-082-210800-
TEXAS TECH WEST TEXAS MESONET/FAR WEST/SOUTHWEST MOUNTAINS/TRANS PECOS

CITY           SKY/WX    TMP DP  RH WIND       PRES   REMARKS
PRSMN GAP BBNP   N/A     49  37  62 S2        30.03S
GUADLPE MTN NP   N/A     54  12  18 W13       30.06F
$$